contact:dominique.lefevre@mio.osupytheas.fr, maurice.libes@osupytheas.fr, didier.mallarino@osupytheas.fr
Project:EMSO http://www.emso-fr.org/EMSO-France
Depth: 2436.0 m
Title:EMSO Ligure Ouest : Data MII capteur AQUADOPP
Date,Latitude,Longitude,X_East,Y_North,Z_Up,Amplitude_X,Amplitude_Y,Amplitude_Z,Batterie,SoundSpeed,Heading,Pitch,Roll,Pressure,TIS,Speed,Direction
, degrees North, degrees East, m.s-1, m.s-1,m.s-1, 1, 1, 1, Volt, m.s-1, degree, degree, degree, dbar, degree_C, m.s-1, degree
2020-04-04T00:04:03,42.805,6.029,-0.009,0.025,-0.039,105.0,113.0,102.0,13.4,1505.3,326.3,-0.7,1.8,2470.319,13.32,0.026,340.2
2020-04-04T00:07:03,42.805,6.029,0.002,0.027,0.004,105.0,113.0,103.0,13.4,1505.3,324.7,-0.7,1.9,2470.295,13.32,0.027,4.2
2020-04-04T00:10:03,42.805,6.029,0.036,0.033,-0.01,106.0,112.0,101.0,13.3,1505.3,325.9,-0.7,1.8,2470.291,13.33,0.048,47.5
2020-04-04T00:13:03,42.805,6.029,-0.002,0.021,-0.002,105.0,114.0,102.0,13.3,1505.3,326.4,-0.7,1.9,2470.292,13.33,0.021,354.6
2020-04-04T00:16:03,42.805,6.029,0.014,0.04,-0.015,106.0,112.0,102.0,13.3,1505.3,323.4,-0.7,1.8,2470.288,13.33,0.042,19.3
2020-04-04T00:19:03,42.805,6.029,0.012,0.046,-0.021,105.0,113.0,102.0,13.4,1505.3,323.5,-0.7,1.8,2470.3,13.33,0.047,14.6
2020-04-04T00:22:03,42.805,6.029,0.0,0.031,-0.039,104.0,113.0,102.0,13.3,1505.3,324.3,-0.7,1.8,2470.29,13.33,0.03,0.0
2020-04-04T00:25:03,42.805,6.029,-0.003,0.024,-0.011,104.0,114.0,102.0,13.3,1505.4,328.2,-0.7,1.8,2470.309,13.34,0.024,352.9
2020-04-04T00:28:03,42.805,6.029,0.014,0.044,-0.032,107.0,114.0,101.0,13.3,1505.3,325.0,-0.7,1.8,2470.308,13.33,0.046,17.6
2020-04-04T00:31:03,42.805,6.029,-0.001,0.034,-0.036,109.0,112.0,102.0,13.3,1505.3,326.0,-0.7,1.9,2470.288,13.33,0.034,358.3
2020-04-04T00:34:03,42.805,6.029,-0.004,0.018,-0.021,106.0,113.0,102.0,13.3,1505.4,323.7,-0.7,1.8,2470.297,13.34,0.018,347.5
2020-04-04T00:37:03,42.805,6.029,0.01,0.026,-0.022,107.0,113.0,102.0,13.4,1505.4,323.7,-0.7,1.8,2470.303,13.34,0.027,21.0
2020-04-04T00:40:03,42.805,6.029,0.012,0.038,-0.01,105.0,112.0,102.0,13.4,1505.4,328.5,-0.7,1.9,2470.296,13.34,0.039,17.5
2020-04-04T00:43:03,42.805,6.029,-0.011,0.022,-0.062,107.0,113.0,102.0,13.4,1505.4,324.9,-0.7,1.9,2470.338,13.34,0.024,333.4
2020-04-04T00:46:03,42.805,6.029,-0.001,0.029,-0.022,106.0,114.0,103.0,13.4,1505.4,325.9,-0.7,1.8,2470.324,13.34,0.029,358.0
2020-04-04T00:52:03,42.805,6.029,0.003,0.019,-0.035,106.0,113.0,102.0,13.4,1505.3,326.6,-0.7,1.8,2470.329,13.32,0.019,9.0
2020-04-04T00:55:03,42.805,6.029,-0.058,0.02,-0.049,105.0,112.0,103.0,13.3,1505.3,325.1,-0.7,1.8,2470.3,13.32,0.061,289.0
2020-04-04T00:58:03,42.805,6.029,0.004,0.037,-0.05,106.0,112.0,103.0,13.4,1505.3,323.5,-0.7,1.8,2470.329,13.33,0.037,6.2
2020-04-04T01:04:03,42.805,6.029,0.024,0.048,0.031,107.0,113.0,104.0,13.4,1505.3,325.8,-0.7,1.8,2470.369,13.31,0.053,26.6
2020-04-04T01:07:02,42.805,6.029,0.011,0.036,-0.03,105.0,113.0,102.0,13.4,1505.3,327.7,-0.7,1.8,2470.372,13.32,0.037,17.0
2020-04-04T01:10:03,42.805,6.029,0.016,0.025,-0.01,107.0,111.0,102.0,13.3,1505.3,324.7,-0.7,1.8,2470.333,13.33,0.029,32.6
2020-04-04T01:13:03,42.805,6.029,-0.003,0.021,-0.036,105.0,112.0,101.0,13.4,1505.3,324.5,-0.7,1.8,2470.343,13.33,0.021,351.9
2020-04-04T01:16:03,42.805,6.029,0.027,0.037,-0.024,104.0,114.0,103.0,13.3,1505.3,327.9,-0.7,1.8,2470.365,13.33,0.045,36.1
2020-04-04T01:19:03,42.805,6.029,0.019,0.03,-0.034,106.0,113.0,102.0,13.4,1505.3,326.5,-0.7,1.9,2470.325,13.33,0.035,32.3
2020-04-04T01:22:03,42.805,6.029,0.023,0.029,-0.012,105.0,113.0,102.0,13.4,1505.3,325.7,-0.7,1.8,2470.338,13.33,0.037,38.4
2020-04-04T01:25:03,42.805,6.029,-0.001,0.05,-0.007,106.0,113.0,102.0,13.4,1505.4,324.5,-0.7,1.8,2470.35,13.34,0.05,358.9
2020-04-04T01:28:03,42.805,6.029,-0.032,0.031,-0.032,104.0,113.0,101.0,13.4,1505.3,323.5,-0.7,1.8,2470.336,13.33,0.044,314.1
2020-04-04T01:31:03,42.805,6.029,0.017,0.019,-0.022,106.0,112.0,102.0,13.4,1505.3,325.7,-0.7,1.8,2470.344,13.33,0.025,41.8
2020-04-04T01:34:03,42.805,6.029,0.023,0.039,-0.022,105.0,112.0,102.0,13.3,1505.4,326.0,-0.7,1.8,2470.355,13.34,0.045,30.5
2020-04-04T01:37:03,42.805,6.029,0.031,0.032,0.029,109.0,111.0,103.0,13.3,1505.4,324.6,-0.7,1.8,2470.27,13.34,0.044,44.1
2020-04-04T01:40:03,42.805,6.029,-0.015,0.035,-0.031,105.0,113.0,103.0,13.4,1505.4,324.2,-0.7,1.8,2470.327,13.34,0.038,336.8
2020-04-04T01:43:03,42.805,6.029,0.005,0.036,-0.03,105.0,113.0,101.0,13.4,1505.4,324.0,-0.7,1.8,2470.349,13.34,0.036,7.9
2020-04-04T01:46:03,42.805,6.029,-0.006,0.035,-0.007,106.0,114.0,102.0,13.3,1505.4,325.1,-0.7,1.8,2470.329,13.34,0.035,350.3
2020-04-04T01:49:03,42.805,6.029,-0.01,0.016,-0.018,107.0,112.0,102.0,13.3,1505.4,328.2,-0.7,1.8,2470.334,13.34,0.018,328.0
2020-04-04T01:52:03,42.805,6.029,0.003,0.015,-0.004,106.0,110.0,101.0,13.4,1505.4,326.7,-0.7,1.8,2470.313,13.34,0.015,11.3
2020-04-04T01:55:03,42.805,6.029,0.001,0.032,0.002,106.0,112.0,103.0,13.3,1505.4,324.1,-0.7,1.8,2470.314,13.34,0.032,1.8
2020-04-04T01:58:03,42.805,6.029,0.014,0.045,0.015,106.0,113.0,102.0,13.4,1505.4,324.5,-0.7,1.8,2470.364,13.34,0.047,17.3
2020-04-04T02:04:03,42.805,6.029,-0.029,0.033,-0.028,105.0,113.0,103.0,13.4,1505.3,325.7,-0.7,1.9,2470.369,13.32,0.043,318.7
2020-04-04T02:07:03,42.805,6.029,0.0,0.027,-0.046,104.0,112.0,102.0,13.3,1505.3,326.0,-0.7,1.8,2470.387,13.33,0.026,0.0
2020-04-04T02:10:03,42.805,6.029,-0.018,0.049,-0.021,106.0,113.0,101.0,13.4,1505.3,324.8,-0.7,1.9,2470.387,13.33,0.052,339.8
2020-04-04T02:13:03,42.805,6.029,0.016,0.036,-0.004,104.0,113.0,103.0,13.4,1505.3,326.4,-0.7,1.9,2470.374,13.33,0.039,24.0
2020-04-04T02:16:03,42.805,6.029,0.002,0.03,-0.03,106.0,112.0,103.0,13.4,1505.3,325.2,-0.7,1.8,2470.38,13.33,0.03,3.8
2020-04-04T02:19:03,42.805,6.029,0.018,0.024,-0.012,105.0,113.0,103.0,13.4,1505.3,325.8,-0.7,1.8,2470.399,13.33,0.03,36.9
2020-04-04T02:22:03,42.805,6.029,0.004,0.029,-0.064,106.0,113.0,102.0,13.3,1505.3,323.4,-0.7,1.8,2470.38,13.33,0.029,7.8
2020-04-04T02:25:03,42.805,6.029,-0.01,0.029,-0.063,105.0,112.0,102.0,13.4,1505.3,324.9,-0.7,1.8,2470.383,13.33,0.03,341.0
2020-04-04T02:28:03,42.805,6.029,-0.008,0.052,-0.025,106.0,111.0,101.0,13.4,1505.3,325.4,-0.7,1.9,2470.376,13.33,0.052,351.3
2020-04-04T02:31:03,42.805,6.029,-0.003,0.039,-0.016,105.0,113.0,102.0,13.4,1505.3,324.5,-0.7,1.8,2470.345,13.33,0.039,355.6
2020-04-04T02:34:03,42.805,6.029,0.023,0.036,-0.001,105.0,112.0,102.0,13.4,1505.3,326.8,-0.7,1.9,2470.365,13.33,0.042,32.6
2020-04-04T02:37:03,42.805,6.029,-0.023,0.011,-0.059,106.0,113.0,102.0,13.3,1505.3,323.8,-0.7,1.9,2470.357,13.33,0.025,295.6
2020-04-04T02:40:03,42.805,6.029,-0.021,0.023,-0.031,106.0,111.0,102.0,13.4,1505.3,323.3,-0.7,1.8,2470.309,13.33,0.031,317.6
2020-04-04T02:43:03,42.805,6.029,0.02,0.03,-0.025,106.0,113.0,102.0,13.3,1505.3,324.6,-0.7,1.8,2470.363,13.33,0.036,33.7
2020-04-04T02:46:03,42.805,6.029,0.031,0.035,0.0,105.0,113.0,101.0,13.4,1505.4,327.2,-0.7,1.8,2470.385,13.34,0.046,41.5
2020-04-04T02:49:03,42.805,6.029,0.019,0.025,0.004,106.0,111.0,102.0,13.4,1505.4,328.6,-0.7,1.9,2470.341,13.34,0.031,37.2
2020-04-04T02:52:03,42.805,6.029,0.001,0.051,-0.003,105.0,113.0,101.0,13.4,1505.4,326.5,-0.7,1.8,2470.396,13.34,0.051,1.1
2020-04-04T02:55:03,42.805,6.029,0.017,0.02,0.002,106.0,114.0,101.0,13.4,1505.4,327.6,-0.7,1.8,2470.389,13.34,0.026,40.4
2020-04-04T02:58:03,42.805,6.029,0.016,0.046,-0.009,105.0,114.0,102.0,13.4,1505.4,325.9,-0.7,1.8,2470.385,13.34,0.048,19.2
2020-04-04T03:04:03,42.805,6.029,0.015,0.022,-0.031,105.0,113.0,102.0,13.4,1505.3,326.9,-0.7,1.8,2470.394,13.32,0.026,34.3
2020-04-04T03:07:03,42.805,6.029,0.003,0.054,-0.012,105.0,112.0,102.0,13.3,1505.3,324.4,-0.7,1.8,2470.446,13.32,0.054,3.2
2020-04-04T03:10:03,42.805,6.029,-0.005,0.031,-0.027,105.0,112.0,103.0,13.4,1505.3,324.8,-0.7,1.8,2470.373,13.33,0.031,350.8
2020-04-04T03:13:03,42.805,6.029,-0.008,0.05,-0.012,105.0,113.0,102.0,13.4,1505.3,323.2,-0.7,1.8,2470.391,13.33,0.05,350.9
2020-04-04T03:16:03,42.805,6.029,0.01,0.015,-0.024,105.0,109.0,102.0,13.3,1505.3,325.1,-0.7,1.8,2470.395,13.33,0.018,33.7
2020-04-04T03:19:03,42.805,6.029,0.02,0.028,0.0,104.0,112.0,101.0,13.4,1505.3,326.7,-0.7,1.8,2470.42,13.33,0.034,35.5
2020-04-04T03:22:03,42.805,6.029,-0.007,0.028,-0.018,105.0,113.0,102.0,13.4,1505.3,326.9,-0.7,1.8,2470.393,13.33,0.028,346.0
2020-04-04T03:25:03,42.805,6.029,0.012,0.033,-0.002,105.0,114.0,103.0,13.3,1505.3,325.2,-0.7,1.8,2470.435,13.33,0.035,20.0
2020-04-04T03:28:03,42.805,6.029,0.007,0.038,-0.006,106.0,113.0,102.0,13.4,1505.3,324.5,-0.7,1.9,2470.406,13.33,0.038,10.4
2020-04-04T03:31:03,42.805,6.029,0.016,0.024,-0.002,106.0,112.0,102.0,13.4,1505.4,326.7,-0.7,1.8,2470.416,13.34,0.028,33.7
2020-04-04T03:34:03,42.805,6.029,0.019,0.017,-0.012,106.0,113.0,102.0,13.4,1505.4,327.0,-0.8,1.8,2470.435,13.34,0.025,48.2
2020-04-04T03:37:03,42.805,6.029,0.019,0.027,0.002,106.0,111.0,102.0,13.3,1505.4,326.2,-0.7,1.8,2470.411,13.34,0.033,35.1
2020-04-04T03:40:03,42.805,6.029,-0.004,0.039,0.018,105.0,112.0,103.0,13.3,1505.4,326.3,-0.7,1.8,2470.398,13.34,0.039,354.1
2020-04-04T03:43:03,42.805,6.029,0.003,0.026,-0.003,104.0,112.0,102.0,13.4,1505.4,324.6,-0.7,1.8,2470.406,13.34,0.026,6.6
2020-04-04T03:46:03,42.805,6.029,0.013,0.023,-0.036,105.0,112.0,102.0,13.4,1505.4,328.3,-0.7,1.8,2470.425,13.34,0.026,29.5
2020-04-04T03:49:03,42.805,6.029,0.009,0.005,-0.039,106.0,113.0,103.0,13.3,1505.4,326.7,-0.7,1.8,2470.366,13.34,0.01,60.9
2020-04-04T03:52:03,42.805,6.029,0.0,0.018,-0.077,105.0,111.0,103.0,13.4,1505.4,326.3,-0.7,1.8,2470.405,13.34,0.018,0.0
2020-04-04T03:55:03,42.805,6.029,-0.002,0.043,0.008,105.0,113.0,103.0,13.4,1505.4,325.8,-0.7,1.8,2470.407,13.34,0.043,357.3
2020-04-04T03:58:03,42.805,6.029,0.001,0.018,-0.048,104.0,114.0,103.0,13.3,1505.4,324.7,-0.7,1.8,2470.39,13.34,0.018,3.2
2020-04-04T04:04:03,42.805,6.029,-0.015,0.026,-0.022,107.0,112.0,101.0,13.3,1505.3,324.5,-0.7,1.9,2470.444,13.32,0.03,330.0
2020-04-04T04:07:03,42.805,6.029,-0.001,0.025,0.0,105.0,112.0,102.0,13.4,1505.3,328.4,-0.8,1.8,2470.412,13.33,0.025,357.7
2020-04-04T04:10:03,42.805,6.029,0.012,0.027,-0.001,106.0,112.0,102.0,13.4,1505.3,323.0,-0.7,1.8,2470.376,13.33,0.029,24.0
2020-04-04T04:13:03,42.805,6.029,0.011,0.03,-0.024,107.0,112.0,102.0,13.4,1505.3,323.2,-0.7,1.8,2470.406,13.33,0.031,20.1
2020-04-04T04:16:03,42.805,6.029,0.018,0.045,-0.027,104.0,112.0,103.0,13.3,1505.3,323.8,-0.7,1.8,2470.385,13.33,0.048,21.8
2020-04-04T04:19:03,42.805,6.029,0.01,0.037,-0.016,105.0,112.0,101.0,13.3,1505.3,323.5,-0.7,1.8,2470.41,13.33,0.038,15.1
2020-04-04T04:22:03,42.805,6.029,-0.002,0.029,-0.065,105.0,111.0,102.0,13.4,1505.3,327.2,-0.7,1.8,2470.414,13.33,0.029,356.1
2020-04-04T04:25:03,42.805,6.029,0.014,0.033,0.007,105.0,111.0,102.0,13.4,1505.3,324.8,-0.7,1.9,2470.414,13.33,0.035,23.0
2020-04-04T04:28:03,42.805,6.029,0.017,0.04,-0.03,105.0,111.0,101.0,13.4,1505.3,325.0,-0.7,1.8,2470.389,13.33,0.043,23.0
2020-04-04T04:31:03,42.805,6.029,-0.007,0.026,-0.025,103.0,112.0,102.0,13.3,1505.3,324.4,-0.7,1.8,2470.415,13.33,0.026,344.9
2020-04-04T04:34:03,42.805,6.029,-0.001,0.016,-0.014,106.0,111.0,102.0,13.4,1505.3,327.5,-0.7,1.8,2470.39,13.33,0.016,356.4
2020-04-04T04:37:03,42.805,6.029,0.01,0.031,-0.017,105.0,111.0,101.0,13.3,1505.4,327.4,-0.7,1.8,2470.423,13.34,0.032,17.9
2020-04-04T04:40:03,42.805,6.029,0.009,0.039,-0.031,105.0,113.0,102.0,13.4,1505.4,327.3,-0.7,1.8,2470.415,13.34,0.04,13.0
2020-04-04T04:43:03,42.805,6.029,-0.011,0.058,0.004,105.0,111.0,102.0,13.4,1505.4,327.0,-0.7,1.8,2470.4,13.34,0.059,349.3
2020-04-04T04:46:03,42.805,6.029,-0.003,0.02,-0.025,106.0,112.0,102.0,13.4,1505.4,325.4,-0.7,1.8,2470.402,13.34,0.02,351.5
2020-04-04T04:49:03,42.805,6.029,0.006,0.014,-0.052,105.0,111.0,101.0,13.3,1505.4,324.8,-0.7,1.8,2470.394,13.34,0.015,23.2
2020-04-04T04:52:03,42.805,6.029,0.013,0.032,-0.002,105.0,111.0,102.0,13.4,1505.4,326.3,-0.7,1.8,2470.403,13.34,0.034,22.1
2020-04-04T04:55:03,42.805,6.029,0.002,0.03,-0.021,106.0,114.0,102.0,13.3,1505.4,327.9,-0.7,1.9,2470.406,13.34,0.03,3.8
2020-04-04T04:58:03,42.805,6.029,0.003,0.024,-0.017,105.0,112.0,102.0,13.4,1505.4,327.1,-0.7,1.8,2470.412,13.34,0.024,7.1
2020-04-04T05:04:03,42.805,6.029,0.005,0.004,-0.029,108.0,111.0,103.0,13.4,1505.3,323.9,-0.8,1.8,2470.438,13.32,0.006,51.3
2020-04-04T05:07:03,42.805,6.029,0.0,0.032,-0.009,105.0,112.0,103.0,13.4,1505.3,325.1,-0.7,1.8,2470.407,13.33,0.032,0.0
2020-04-04T05:10:03,42.805,6.029,0.021,0.017,-0.033,107.0,112.0,103.0,13.4,1505.3,323.2,-0.7,1.8,2470.39,13.33,0.027,51.0
2020-04-04T05:13:03,42.805,6.029,0.004,0.009,-0.039,106.0,113.0,104.0,13.4,1505.3,325.7,-0.7,1.9,2470.413,13.33,0.009,24.0
2020-04-04T05:16:03,42.805,6.029,0.005,0.027,-0.046,105.0,111.0,102.0,13.4,1505.4,324.5,-0.7,1.8,2470.434,13.34,0.027,10.5
2020-04-04T05:19:03,42.805,6.029,0.013,0.029,-0.024,106.0,111.0,103.0,13.4,1505.4,326.6,-0.7,1.8,2470.418,13.34,0.031,24.1
2020-04-04T05:22:03,42.805,6.029,0.004,0.038,0.007,105.0,112.0,104.0,13.4,1505.4,325.9,-0.7,1.8,2470.46,13.34,0.038,6.0
2020-04-04T05:25:03,42.805,6.029,0.023,0.03,-0.011,105.0,112.0,102.0,13.4,1505.4,325.1,-0.7,1.8,2470.404,13.34,0.037,37.5
2020-04-04T05:28:03,42.805,6.029,0.019,0.045,-0.026,105.0,111.0,102.0,13.3,1505.4,324.5,-0.7,1.8,2470.395,13.34,0.048,22.9
2020-04-04T05:31:03,42.805,6.029,0.026,0.027,-0.025,105.0,113.0,102.0,13.4,1505.4,325.2,-0.7,1.8,2470.377,13.34,0.037,43.9
2020-04-04T05:34:03,42.805,6.029,-0.01,0.019,-0.014,105.0,112.0,102.0,13.4,1505.4,326.9,-0.7,1.8,2470.436,13.34,0.021,332.2
2020-04-04T05:37:03,42.805,6.029,0.009,0.017,0.0,106.0,112.0,103.0,13.4,1505.4,323.8,-0.7,1.9,2470.376,13.34,0.019,27.9
2020-04-04T05:40:03,42.805,6.029,0.035,0.018,-0.013,107.0,111.0,103.0,13.4,1505.4,324.1,-0.7,1.8,2470.392,13.34,0.039,62.8
2020-04-04T05:43:03,42.805,6.029,0.027,0.024,-0.046,105.0,112.0,103.0,13.4,1505.4,324.8,-0.7,1.9,2470.408,13.34,0.036,48.4
2020-04-04T05:46:03,42.805,6.029,0.011,0.022,-0.009,102.0,112.0,102.0,13.3,1505.4,326.5,-0.7,1.8,2470.38,13.34,0.024,26.6
2020-04-04T05:49:03,42.805,6.029,0.001,0.024,-0.02,103.0,114.0,103.0,13.3,1505.4,324.0,-0.7,1.8,2470.384,13.34,0.024,2.4
2020-04-04T05:52:03,42.805,6.029,0.001,0.038,-0.014,107.0,113.0,102.0,13.4,1505.4,326.2,-0.7,1.8,2470.372,13.34,0.038,1.5
2020-04-04T05:55:03,42.805,6.029,0.004,0.018,-0.068,107.0,111.0,103.0,13.4,1505.4,324.8,-0.7,1.8,2470.393,13.34,0.018,12.5
2020-04-04T05:58:03,42.805,6.029,-0.011,0.018,-0.024,106.0,112.0,103.0,13.3,1505.4,327.6,-0.7,1.8,2470.372,13.34,0.021,328.6
2020-04-04T06:04:03,42.805,6.029,0.003,0.016,-0.011,107.0,111.0,104.0,13.4,1505.3,323.2,-0.7,1.8,2470.398,13.33,0.016,10.6
2020-04-04T06:07:03,42.805,6.029,0.0,0.016,-0.012,104.0,113.0,104.0,13.4,1505.3,326.5,-0.7,1.9,2470.447,13.33,0.016,0.0
2020-04-04T06:10:03,42.805,6.029,0.003,0.025,-0.033,104.0,113.0,103.0,13.4,1505.3,326.3,-0.7,1.8,2470.383,13.33,0.025,6.8
2020-04-04T06:13:03,42.805,6.029,0.015,0.016,-0.023,106.0,111.0,103.0,13.4,1505.4,324.2,-0.7,1.8,2470.388,13.34,0.021,43.1
2020-04-04T06:16:03,42.805,6.029,-0.002,0.033,-0.038,106.0,112.0,103.0,13.4,1505.4,323.0,-0.7,1.8,2470.388,13.34,0.033,356.5
2020-04-04T06:19:03,42.805,6.029,0.008,0.006,-0.013,105.0,112.0,104.0,13.4,1505.4,325.3,-0.7,1.8,2470.375,13.34,0.01,53.1
2020-04-04T06:22:03,42.805,6.029,0.001,0.026,0.002,106.0,112.0,104.0,13.4,1505.4,324.5,-0.7,1.8,2470.38,13.34,0.026,2.2
2020-04-04T06:25:03,42.805,6.029,-0.018,0.04,-0.028,106.0,112.0,102.0,13.4,1505.4,326.8,-0.7,1.8,2470.378,13.34,0.043,335.8
2020-04-04T06:28:03,42.805,6.029,-0.01,0.022,-0.039,105.0,112.0,103.0,13.4,1505.4,326.1,-0.7,1.8,2470.388,13.34,0.024,335.6
2020-04-04T06:31:03,42.805,6.029,0.005,0.005,0.008,106.0,112.0,102.0,13.4,1505.4,325.9,-0.7,1.8,2470.355,13.34,0.007,45.0
2020-04-04T06:34:03,42.805,6.029,0.008,0.011,-0.02,106.0,112.0,101.0,13.3,1505.4,325.7,-0.7,1.8,2470.332,13.34,0.013,36.0
2020-04-04T06:37:03,42.805,6.029,-0.001,0.027,-0.032,105.0,112.0,102.0,13.3,1505.4,327.0,-0.7,1.8,2470.37,13.34,0.027,357.9
2020-04-04T06:40:03,42.805,6.029,0.012,0.034,-0.011,105.0,112.0,103.0,13.4,1505.4,327.0,-0.7,1.8,2470.361,13.34,0.036,19.4
2020-04-04T06:43:03,42.805,6.029,0.0,0.027,0.0,106.0,112.0,102.0,13.4,1505.4,326.3,-0.7,1.8,2470.364,13.34,0.026,0.0
2020-04-04T06:46:03,42.805,6.029,0.013,0.015,-0.02,106.0,110.0,102.0,13.4,1505.4,326.7,-0.7,1.8,2470.388,13.34,0.019,40.9
2020-04-04T06:49:03,42.805,6.029,-0.009,0.016,0.004,107.0,111.0,103.0,13.3,1505.4,325.4,-0.7,1.8,2470.321,13.34,0.018,330.6
2020-04-04T06:52:03,42.805,6.029,0.005,0.022,-0.017,105.0,114.0,103.0,13.4,1505.4,323.2,-0.7,1.8,2470.374,13.34,0.022,12.8
2020-04-04T06:55:03,42.805,6.029,0.009,0.032,0.008,106.0,112.0,103.0,13.4,1505.4,323.3,-0.7,1.8,2470.378,13.34,0.033,15.7
2020-04-04T06:58:03,42.805,6.029,-0.009,0.019,-0.025,104.0,112.0,103.0,13.4,1505.4,323.1,-0.7,1.8,2470.341,13.34,0.021,334.7
2020-04-04T07:04:03,42.805,6.029,0.013,0.028,-0.01,107.0,112.0,101.0,13.3,1505.3,323.3,-0.8,1.8,2470.404,13.32,0.03,24.9
2020-04-04T07:07:03,42.805,6.029,0.004,0.051,0.021,105.0,112.0,102.0,13.3,1505.3,323.5,-0.7,1.9,2470.405,13.33,0.051,4.5
2020-04-04T07:10:03,42.805,6.029,0.008,0.014,-0.051,106.0,112.0,103.0,13.4,1505.3,325.7,-0.7,1.8,2470.375,13.33,0.016,29.7
2020-04-04T07:13:03,42.805,6.029,0.031,0.037,-0.009,105.0,112.0,102.0,13.4,1505.3,327.1,-0.7,1.8,2470.327,13.33,0.048,40.0
2020-04-04T07:16:03,42.805,6.029,0.001,0.049,-0.035,108.0,112.0,102.0,13.4,1505.3,324.2,-0.7,1.8,2470.361,13.33,0.049,1.2
2020-04-04T07:19:03,42.805,6.029,0.008,0.042,-0.024,105.0,111.0,103.0,13.4,1505.4,325.4,-0.7,1.8,2470.373,13.34,0.042,10.8
2020-04-04T07:22:03,42.805,6.029,-0.015,0.05,-0.015,105.0,111.0,102.0,13.4,1505.4,326.5,-0.7,1.9,2470.365,13.34,0.052,343.3
2020-04-04T07:25:03,42.805,6.029,-0.01,0.034,0.009,106.0,111.0,102.0,13.4,1505.4,324.2,-0.7,1.8,2470.354,13.34,0.035,343.6
2020-04-04T07:28:03,42.805,6.029,-0.015,0.034,-0.018,105.0,112.0,103.0,13.4,1505.4,326.2,-0.7,1.8,2470.365,13.34,0.037,336.2
2020-04-04T07:31:03,42.805,6.029,-0.001,0.034,-0.038,105.0,111.0,102.0,13.4,1505.4,323.5,-0.7,1.8,2470.329,13.34,0.034,358.3
2020-04-04T07:34:03,42.805,6.029,-0.001,0.034,0.007,106.0,112.0,102.0,13.4,1505.4,328.1,-0.7,1.8,2470.328,13.34,0.034,358.3
2020-04-04T07:37:03,42.805,6.029,0.005,0.025,-0.033,104.0,111.0,103.0,13.3,1505.4,325.3,-0.7,1.9,2470.326,13.34,0.025,11.3
2020-04-04T07:40:03,42.805,6.029,-0.009,0.021,-0.043,106.0,111.0,101.0,13.4,1505.4,326.5,-0.7,1.8,2470.372,13.34,0.022,336.8
2020-04-04T07:43:03,42.805,6.029,0.005,0.025,-0.029,105.0,111.0,103.0,13.3,1505.4,327.0,-0.7,1.9,2470.389,13.34,0.025,11.3
2020-04-04T07:46:03,42.805,6.029,-0.003,0.039,-0.041,106.0,112.0,102.0,13.3,1505.4,325.7,-0.7,1.8,2470.369,13.34,0.039,355.6
2020-04-04T07:49:03,42.805,6.029,0.01,0.018,-0.035,105.0,113.0,101.0,13.4,1505.4,326.2,-0.7,1.8,2470.333,13.34,0.02,29.1
2020-04-04T07:52:03,42.805,6.029,-0.008,0.021,-0.033,105.0,112.0,102.0,13.4,1505.4,324.1,-0.7,1.8,2470.337,13.34,0.022,339.1
2020-04-04T07:55:03,42.805,6.029,0.019,0.044,-0.008,107.0,113.0,102.0,13.4,1505.4,327.9,-0.7,1.8,2470.317,13.34,0.047,23.4
2020-04-04T07:58:03,42.805,6.029,0.009,0.031,-0.023,105.0,111.0,101.0,13.3,1505.4,326.9,-0.7,1.9,2470.306,13.34,0.032,16.2
2020-04-04T08:04:03,42.805,6.029,0.008,0.021,-0.037,106.0,112.0,102.0,13.4,1505.3,324.9,-0.8,1.8,2470.327,13.32,0.022,20.9
2020-04-04T08:07:03,42.805,6.029,-0.012,0.021,-0.035,105.0,112.0,101.0,13.3,1505.3,323.2,-0.7,1.8,2470.385,13.33,0.024,330.3
2020-04-04T08:10:03,42.805,6.029,0.004,0.032,-0.004,106.0,112.0,103.0,13.4,1505.3,327.3,-0.7,1.9,2470.351,13.33,0.032,7.1
2020-04-04T08:13:03,42.805,6.029,0.012,0.024,0.01,104.0,111.0,102.0,13.4,1505.4,325.3,-0.7,1.8,2470.322,13.34,0.026,26.6
2020-04-04T08:16:03,42.805,6.029,0.007,0.036,-0.015,105.0,111.0,103.0,13.4,1505.4,323.4,-0.7,1.8,2470.356,13.34,0.036,11.0
2020-04-04T08:19:03,42.805,6.029,0.01,0.028,-0.023,105.0,111.0,102.0,13.4,1505.4,326.4,-0.7,1.8,2470.321,13.34,0.029,19.6
2020-04-04T08:22:03,42.805,6.029,0.011,0.024,-0.012,107.0,110.0,102.0,13.3,1505.4,324.6,-0.7,1.8,2470.315,13.34,0.026,24.6
2020-04-04T08:25:03,42.805,6.029,0.002,0.028,-0.015,106.0,112.0,102.0,13.3,1505.4,328.0,-0.7,1.9,2470.315,13.34,0.028,4.1
2020-04-04T08:28:03,42.805,6.029,0.015,0.01,-0.03,104.0,112.0,103.0,13.4,1505.4,326.8,-0.7,1.8,2470.334,13.34,0.018,56.3
2020-04-04T08:31:03,42.805,6.029,0.0,0.022,-0.012,106.0,112.0,101.0,13.4,1505.4,324.9,-0.7,1.8,2470.317,13.34,0.022,0.0
2020-04-04T08:34:03,42.805,6.029,0.0,0.026,-0.048,105.0,112.0,103.0,13.3,1505.4,326.5,-0.7,1.8,2470.302,13.34,0.026,0.0
2020-04-04T08:37:03,42.805,6.029,-0.001,0.024,-0.026,107.0,112.0,102.0,13.4,1505.4,326.9,-0.7,1.8,2470.285,13.34,0.024,357.6
2020-04-04T08:40:03,42.805,6.029,0.026,0.024,-0.012,106.0,112.0,102.0,13.4,1505.4,323.0,-0.7,1.8,2470.306,13.34,0.035,47.3
2020-04-04T08:43:03,42.805,6.029,0.037,0.018,0.006,106.0,112.0,103.0,13.3,1505.4,326.3,-0.7,1.8,2470.322,13.34,0.041,64.1
2020-04-04T08:46:03,42.805,6.029,-0.013,0.024,-0.041,105.0,111.0,102.0,13.4,1505.4,325.6,-0.7,1.8,2470.265,13.34,0.027,331.6
2020-04-04T08:49:03,42.805,6.029,0.011,0.023,-0.019,105.0,110.0,103.0,13.4,1505.4,328.1,-0.7,1.9,2470.296,13.34,0.025,25.6
2020-04-04T08:52:03,42.805,6.029,0.003,0.021,-0.036,107.0,111.0,102.0,13.4,1505.4,326.9,-0.7,1.8,2470.315,13.34,0.021,8.1
2020-04-04T08:55:03,42.805,6.029,0.004,0.019,-0.025,106.0,112.0,103.0,13.4,1505.4,326.6,-0.7,1.8,2470.307,13.34,0.019,11.9
2020-04-04T08:58:03,42.805,6.029,0.0,0.019,-0.023,106.0,110.0,102.0,13.4,1505.4,328.3,-0.7,1.8,2470.255,13.34,0.019,0.0
2020-04-04T09:04:03,42.805,6.029,-0.013,0.025,-0.055,107.0,111.0,101.0,13.4,1505.3,324.0,-0.7,1.8,2470.294,13.32,0.028,332.5
2020-04-04T09:07:03,42.805,6.029,0.029,0.016,0.001,107.0,112.0,103.0,13.3,1505.3,325.8,-0.7,1.8,2470.303,13.33,0.033,61.1
2020-04-04T09:10:03,42.805,6.029,0.007,0.022,-0.014,108.0,110.0,102.0,13.4,1505.4,323.8,-0.7,1.8,2470.281,13.34,0.023,17.6
2020-04-04T09:13:03,42.805,6.029,0.003,0.026,0.008,105.0,110.0,103.0,13.4,1505.4,324.1,-0.7,1.8,2470.257,13.34,0.026,6.6
2020-04-04T09:16:03,42.805,6.029,0.014,0.008,-0.032,105.0,112.0,104.0,13.3,1505.4,324.5,-0.7,1.8,2470.318,13.34,0.016,60.3
2020-04-04T09:19:03,42.805,6.029,-0.018,0.032,-0.035,107.0,111.0,103.0,13.3,1505.4,327.0,-0.7,1.9,2470.295,13.34,0.036,330.6
2020-04-04T09:22:03,42.805,6.029,-0.013,0.038,-0.024,105.0,109.0,102.0,13.3,1505.4,327.2,-0.7,1.9,2470.284,13.34,0.04,341.1
2020-04-04T09:25:03,42.805,6.029,-0.006,0.021,-0.037,107.0,112.0,102.0,13.4,1505.4,324.5,-0.7,1.9,2470.283,13.34,0.021,344.1
2020-04-04T09:28:03,42.805,6.029,-0.005,0.043,-0.003,104.0,113.0,103.0,13.4,1505.4,323.2,-0.8,1.8,2470.29,13.34,0.043,353.4
2020-04-04T09:31:03,42.805,6.029,-0.006,0.027,-0.027,108.0,110.0,103.0,13.4,1505.4,323.3,-0.7,1.9,2470.284,13.34,0.027,347.5
2020-04-04T09:34:03,42.805,6.029,-0.001,0.025,-0.012,106.0,111.0,103.0,13.4,1505.4,325.4,-0.7,1.8,2470.292,13.34,0.025,357.7
2020-04-04T09:37:03,42.805,6.029,0.017,0.009,-0.018,108.0,112.0,102.0,13.3,1505.4,327.8,-0.7,1.8,2470.29,13.34,0.019,62.1
2020-04-04T09:40:03,42.805,6.029,-0.02,0.029,-0.017,107.0,111.0,102.0,13.4,1505.4,325.8,-0.7,1.9,2470.301,13.34,0.035,325.4
2020-04-04T09:43:03,42.805,6.029,0.001,0.03,-0.058,105.0,110.0,102.0,13.4,1505.4,328.0,-0.7,1.8,2470.265,13.34,0.03,1.9
2020-04-04T09:46:03,42.805,6.029,-0.005,0.018,-0.065,104.0,111.0,101.0,13.3,1505.4,325.3,-0.7,1.8,2470.259,13.34,0.018,344.5
2020-04-04T09:49:03,42.805,6.029,0.001,0.011,-0.046,106.0,110.0,101.0,13.4,1505.4,325.3,-0.7,1.8,2470.265,13.34,0.011,5.2
2020-04-04T09:52:03,42.805,6.029,-0.005,0.001,-0.066,106.0,111.0,104.0,13.4,1505.4,325.3,-0.7,1.8,2470.249,13.34,0.005,281.3
2020-04-04T09:55:03,42.805,6.029,-0.005,0.034,-0.027,106.0,109.0,103.0,13.4,1505.4,323.6,-0.7,1.8,2470.242,13.34,0.034,351.6
2020-04-04T09:58:03,42.805,6.029,-0.008,0.04,-0.053,106.0,110.0,102.0,13.3,1505.4,323.7,-0.7,1.8,2470.248,13.34,0.04,348.7
2020-04-04T10:04:03,42.805,6.029,-0.009,0.024,-0.043,105.0,110.0,102.0,13.3,1505.3,324.0,-0.7,1.8,2470.237,13.33,0.025,339.4
2020-04-04T10:07:03,42.805,6.029,0.01,0.015,-0.021,106.0,111.0,101.0,13.3,1505.3,324.8,-0.7,1.8,2470.297,13.33,0.018,33.7